| time (UTC) | temp F | wind direction | speed MPH | gust MPH | rain 1hr in | rain 24hr in | rain mn in | humidity % | barometer mb |
| 20260901184600 | 56 | 249 | 4.0 | 12.0 | 0.00 | 0.14 | 0.14 | 94 | 1012.7 |
| 20260901183117 | 56 | 333 | 4.0 | 14.0 | 0.00 | 0.14 | 0.14 | 94 | 1012.7 |
| 20260901181603 | 56 | 240 | 6.0 | 14.0 | 0.00 | 0.14 | 0.14 | 94 | 1012.7 |
| 20260901180113 | 56 | 228 | 6.0 | 16.0 | 0.01 | 0.14 | 0.14 | 94 | 1012.5 |
| 20260901174520 | 57 | 244 | 5.0 | 15.0 | 0.03 | 0.14 | 0.14 | 94 | 1012.5 |
| 20260901173009 | 57 | 253 | 5.0 | 14.0 | 0.08 | 0.14 | 0.14 | 94 | 1012.6 |
| 20260901171519 | 57 | 281 | 5.0 | 11.0 | 0.14 | 0.14 | 0.14 | 93 | 1012.5 |
| 20260901170150 | 57 | 307 | 4.0 | 11.0 | 0.13 | 0.13 | 0.13 | 93 | 1012.4 |
| 20260901164554 | 58 | 240 | 5.0 | 11.0 | 0.11 | 0.11 | 0.11 | 92 | 1012.4 |
| 20260901163059 | 59 | 250 | 4.0 | 12.0 | 0.06 | 0.06 | 0.06 | 90 | 1012.2 |
| 20260901161525 | 61 | 322 | 4.0 | 15.0 | 0.00 | 0.00 | 0.00 | 86 | 1012.1 |
| 20260901160150 | 62 | 278 | 8.0 | 17.0 | 0.00 | 0.00 | 0.00 | 83 | 1012.0 |
| 20260901154554 | 62 | 286 | 8.0 | 16.0 | 0.00 | 0.00 | 0.00 | 82 | 1011.9 |
| 20260901153117 | 62 | 179 | 8.0 | 19.0 | 0.00 | 0.00 | 0.00 | 82 | 1011.8 |
| 20260901151502 | 62 | 280 | 6.0 | 20.0 | 0.00 | 0.00 | 0.00 | 83 | 1011.8 |
| 20260901150032 | 62 | 194 | 9.0 | 19.0 | 0.00 | 0.00 | 0.00 | 82 | 1011.9 |
| 20260901144537 | 63 | 240 | 8.0 | 26.0 | 0.00 | 0.00 | 0.00 | 81 | 1012.0 |
| 20260901143136 | 63 | 231 | 7.0 | 21.0 | 0.00 | 0.00 | 0.00 | 80 | 1011.8 |
| 20260901141608 | 64 | 248 | 9.0 | 22.0 | 0.00 | 0.00 | 0.00 | 80 | 1011.6 |
| 20260901140104 | 62 | 233 | 7.0 | 25.0 | 0.00 | 0.00 | 0.00 | 83 | 1011.8 |
| 20260901134559 | 61 | 248 | 8.0 | 24.0 | 0.00 | 0.00 | 0.00 | 86 | 1011.8 |
| 20260901133110 | 61 | 250 | 11.0 | 22.0 | 0.00 | 0.00 | 0.00 | 85 | 1011.8 |
| 20260901131550 | 60 | 222 | 6.0 | 17.0 | 0.00 | 0.00 | 0.00 | 84 | 1011.9 |
| 20260901130111 | 62 | 235 | 11.0 | 25.0 | 0.00 | 0.00 | 0.00 | 83 | 1011.9 |
| 20260901124503 | 63 | 218 | 10.0 | 21.0 | 0.00 | 0.00 | 0.00 | 81 | 1011.6 |
| 20260901123125 | 63 | 245 | 9.0 | 21.0 | 0.00 | 0.00 | 0.00 | 82 | 1011.6 |
| 20260901121501 | 62 | 236 | 11.0 | 26.0 | 0.00 | 0.00 | 0.00 | 82 | 1011.4 |
| 20260901120147 | 62 | 247 | 10.0 | 24.0 | 0.00 | 0.00 | 0.00 | 81 | 1011.3 |
| 20260901114554 | 62 | 216 | 13.0 | 28.0 | 0.00 | 0.00 | 0.00 | 81 | 1011.2 |
| 20260901113114 | 62 | 232 | 11.0 | 27.0 | 0.00 | 0.00 | 0.00 | 82 | 1011.2 |
| 20260901111558 | 62 | 264 | 14.0 | 25.0 | 0.00 | 0.00 | 0.00 | 81 | 1011.2 |
| 20260901110117 | 62 | 211 | 12.0 | 25.0 | 0.00 | 0.00 | 0.00 | 81 | 1011.2 |
| 20260901104554 | 62 | 277 | 13.0 | 25.0 | 0.00 | 0.00 | 0.00 | 81 | 1011.0 |
| 20260901103018 | 61 | 211 | 12.0 | 23.0 | 0.00 | 0.00 | 0.00 | 84 | 1010.9 |
| 20260901101548 | 60 | 226 | 12.0 | 27.0 | 0.00 | 0.00 | 0.00 | 86 | 1011.0 |
| 20260901100042 | 60 | 173 | 11.0 | 22.0 | 0.00 | 0.00 | 0.00 | 84 | 1011.2 |
| 20260901094540 | 60 | 211 | 11.0 | 24.0 | 0.00 | 0.00 | 0.00 | 84 | 1011.2 |
| 20260901093014 | 59 | 234 | 12.0 | 24.0 | 0.00 | 0.00 | 0.00 | 85 | 1011.7 |
| 20260901091529 | 58 | 194 | 9.0 | 20.0 | 0.00 | 0.00 | 0.00 | 86 | 1011.7 |
| 20260901090146 | 58 | 214 | 8.0 | 19.0 | 0.00 | 0.00 | 0.00 | 86 | 1011.5 |
| 20260901084505 | 57 | 220 | 11.0 | 22.0 | 0.00 | 0.00 | 0.00 | 86 | 1011.7 |
| 20260901083102 | 57 | 256 | 10.0 | 17.0 | 0.00 | 0.00 | 0.00 | 86 | 1011.7 |
| 20260901081557 | 58 | 227 | 7.0 | 19.0 | 0.00 | 0.00 | 0.00 | 86 | 1011.7 |
| 20260901080139 | 58 | 201 | 8.0 | 20.0 | 0.00 | 0.00 | 0.00 | 85 | 1011.7 |
| 20260901074516 | 57 | 241 | 8.0 | 22.0 | 0.00 | 0.00 | 0.00 | 85 | 1011.7 |
| 20260901073114 | 57 | 238 | 10.0 | 15.0 | 0.00 | 0.00 | 0.00 | 86 | 1011.7 |
| 20260901071517 | 57 | 209 | 7.0 | 16.0 | 0.00 | 0.00 | 0.00 | 86 | 1011.7 |
| 20260901070020 | 56 | 243 | 11.0 | 17.0 | 0.00 | 0.00 | 0.00 | 86 | 1011.7 |
| 20260901064543 | 56 | 214 | 9.0 | 18.0 | 0.00 | 0.00 | 0.00 | 86 | 1011.8 |
| 20260901063107 | 56 | 208 | 11.0 | 20.0 | 0.00 | 0.00 | 0.00 | 86 | 1011.9 |
| 20260901061600 | 56 | 223 | 8.0 | 18.0 | 0.00 | 0.00 | 0.00 | 86 | 1012.1 |
| 20260901060059 | 56 | 268 | 8.0 | 23.0 | 0.00 | 0.00 | 0.00 | 85 | 1012.1 |
| 20260901054552 | 55 | 229 | 9.0 | 20.0 | 0.00 | 0.00 | 0.00 | 86 | 1012.1 |
| 20260901053115 | 55 | 232 | 7.0 | 18.0 | 0.00 | 0.00 | 0.00 | 87 | 1012.2 |
| 20260901051542 | 55 | 211 | 8.0 | 21.0 | 0.00 | 0.00 | 0.00 | 87 | 1012.3 |
| 20260901050036 | 55 | 208 | 8.0 | 19.0 | 0.00 | 0.00 | 0.00 | 87 | 1012.4 |
| 20260901044530 | 55 | 282 | 9.0 | 22.0 | 0.00 | 0.00 | 0.00 | 87 | 1012.4 |
| 20260901043012 | 55 | 265 | 8.0 | 20.0 | 0.00 | 0.00 | 0.00 | 87 | 1012.4 |
| 20260901041517 | 55 | 187 | 10.0 | 17.0 | 0.00 | 0.00 | 0.00 | 87 | 1012.6 |
| 20260901040139 | 55 | 218 | 8.0 | 17.0 | 0.00 | 0.00 | 0.00 | 87 | 1012.5 |
| 20260901034507 | 55 | 237 | 10.0 | 20.0 | 0.00 | 0.00 | 0.00 | 87 | 1012.5 |
| 20260901033142 | 55 | 213 | 9.0 | 22.0 | 0.00 | 0.00 | 0.00 | 86 | 1012.7 |
| 20260901031501 | 55 | 200 | 9.0 | 20.0 | 0.00 | 0.00 | 0.00 | 86 | 1012.7 |
| 20260901030134 | 55 | 209 | 9.0 | 23.0 | 0.00 | 0.00 | 0.00 | 86 | 1012.9 |
| 20260901024511 | 54 | 203 | 10.0 | 18.0 | 0.00 | 0.00 | 0.00 | 87 | 1013.0 |
| 20260901023134 | 54 | 185 | 7.0 | 15.0 | 0.00 | 0.00 | 0.00 | 87 | 1013.0 |
| 20260901021523 | 53 | 238 | 5.0 | 11.0 | 0.00 | 0.00 | 0.00 | 87 | 1013.1 |
| 20260901020051 | 54 | 233 | 7.0 | 15.0 | 0.00 | 0.00 | 0.00 | 85 | 1013.2 |
| 20260901014548 | 54 | 213 | 9.0 | 19.0 | 0.00 | 0.00 | 0.00 | 85 | 1013.3 |
| 20260901013048 | 54 | 228 | 7.0 | 18.0 | 0.00 | 0.00 | 0.00 | 84 | 1013.4 |
| 20260901011539 | 55 | 221 | 9.0 | 18.0 | 0.00 | 0.00 | 0.00 | 84 | 1013.5 |
| 20260901010053 | 54 | 215 | 8.0 | 15.0 | 0.00 | 0.00 | 0.00 | 84 | 1013.5 |
| 20260901004605 | 54 | 273 | 6.0 | 14.0 | 0.00 | 0.00 | 0.00 | 85 | 1013.5 |
| 20260901003135 | 54 | 240 | 7.0 | 16.0 | 0.00 | 0.00 | 0.00 | 85 | 1013.6 |
| 20260901001532 | 54 | 232 | 7.0 | 15.0 | 0.00 | 0.00 | 0.00 | 85 | 1013.7 |
| 20260901000008 | 53 | 216 | 6.0 | 15.0 | 0.00 | 0.00 | 0.00 | 86 | 1013.8 |
| 20260831234521 | 53 | 273 | 4.0 | 10.0 | 0.00 | 0.00 | 0.00 | 86 | 1013.9 |
| 20260831233002 | 53 | 259 | 4.0 | 16.0 | 0.00 | 0.00 | 0.00 | 85 | 1014.0 |
| 20260831231515 | 52 | 229 | 5.0 | 10.0 | 0.00 | 0.00 | 0.00 | 86 | 1014.1 |
| 20260831230129 | 52 | 276 | 6.0 | 14.0 | 0.00 | 0.00 | 0.00 | 86 | 1014.1 |
| 20260831224500 | 52 | 236 | 4.0 | 11.0 | 0.00 | 0.00 | 0.00 | 86 | 1014.1 |
| 20260831223121 | 52 | 325 | 5.0 | 12.0 | 0.00 | 0.00 | 0.00 | 86 | 1014.1 |
| 20260831221605 | 53 | 263 | 5.0 | 11.0 | 0.00 | 0.00 | 0.00 | 84 | 1014.1 |
| 20260831220120 | 53 | 329 | 5.0 | 13.0 | 0.00 | 0.00 | 0.00 | 84 | 1014.1 |
| 20260831214600 | 53 | 243 | 6.0 | 16.0 | 0.00 | 0.00 | 0.00 | 83 | 1014.1 |
| 20260831213114 | 54 | 229 | 5.0 | 14.0 | 0.00 | 0.00 | 0.00 | 81 | 1014.0 |
| 20260831211606 | 54 | 256 | 6.0 | 16.0 | 0.00 | 0.00 | 0.00 | 79 | 1013.9 |
| 20260831210133 | 54 | 307 | 5.0 | 13.0 | 0.00 | 0.00 | 0.00 | 78 | 1013.7 |
| 20260831204600 | 54 | 232 | 5.0 | 14.0 | 0.00 | 0.00 | 0.00 | 78 | 1013.6 |
| 20260831203138 | 54 | 263 | 6.0 | 16.0 | 0.00 | 0.00 | 0.00 | 77 | 1013.4 |
| 20260831201525 | 55 | 264 | 6.0 | 14.0 | 0.00 | 0.00 | 0.00 | 77 | 1013.3 |
| 20260831200052 | 55 | 313 | 5.0 | 16.0 | 0.00 | 0.00 | 0.00 | 77 | 1013.2 |
| 20260831194600 | 55 | 274 | 7.0 | 14.0 | 0.00 | 0.00 | 0.00 | 77 | 1013.0 |
| 20260831193056 | 55 | 263 | 7.0 | 15.0 | 0.00 | 0.00 | 0.00 | 77 | 1012.8 |
| 20260831191603 | 55 | 248 | 6.0 | 15.0 | 0.00 | 0.00 | 0.00 | 77 | 1012.6 |
| 20260831190133 | 56 | 252 | 6.0 | 13.0 | 0.00 | 0.00 | 0.00 | 76 | 1012.2 |